Location: Unspecified
(50.1700°N, 6.8600°E)
Time: 02:53:51
(UTC+00:00)

MTI - Pass Details

Date: 24 January 2019
Orbit: 404 x 414 km, 97.6° (Epoch: 22 April)

Event Time Altitude Azimuth Distance (km) Brightness Sun altitude
Rises 06:19:45 0° 166° (SSE) 2,333 8.0 -9.3°
Reaches altitude 10° 06:21:43 10° 166° (SSE) 1,480 7.0 -9.0°
Maximum altitude 06:24:52 87° 249° (WSW) 421 3.7 -8.5°
Drops below altitude 10° 06:28:05 10° 346° (NNW) 1,502 6.2 -8.0°
Sets 06:30:06 0° 347° (NNW) 2,373 7.2 -7.7°
